Location: ?????
(37.7324°N, 23.9257°E)
Time: 06:32:25
(UTC+00:00)

Lacrosse 5 - Pass Details

Date: 29 November 2020
Orbit: 713 x 726 km, 57.0° (Epoch: 16 January)

Event Time Altitude Azimuth Distance (km) Brightness Sun altitude
Exits shadow 02:52:51 38° 26° (NNE) 1,087 2.8 -28.4°
Drops below altitude 10° 02:55:59 10° 38° (NE) 2,193 4.7 -27.8°
Sets 02:58:23 0° 40° (NE) 3,116 5.6 -27.3°
